STARLINK-32472, 61846

Orbit data source: Space-Track

STARLINK-32472, 61846 is a payload satellite owned by SpaceX/Seattle (US) in LEO that was launched on Thu, 07 Nov 2024 UTC via an FALCON 9 launch vehicle from the Air Force Eastern Test Range (AFETR). Payload-class satellites include a variety of spacecraft equipped with specific instruments for various scientific and technological missions. These include communications satellites like Starlink; space stations such as the ISS; scientific satellites like the Hubble; Earth observation satellites from companies like Planet Labs, Umbra, and HawkEye 360; GPS; miniature CubeSats for education and research; and military/defense satellites.

Loading next visibility...
Identifier
61846, 2024-202B
Orbit
LEO
Country
Flag of USUS
Related business
Manufacturer
SpaceX/Seattle
Mission
Operational spacecraft
Bus & Motor
STARLINK V2M, Unknown motor
Mass
730 kg wet, ~700 kg dry
Launch date (UTC)
2024-11-07 (1 year ago)
Launch vehicle
FALCON 9
Launch site
Air Force Eastern Test Range (AFETR)
Object type
Payload
Rocket body
Debris
Shape & HBR
Unknown shape, 17.7 m
Radar Cross Section
Large (>1 m²)

Expand to show TLE details & history
Last TLE update: 1 day ago

TLE from 1 day ago
0 STARLINK-32472
1 61846U 24202B   25306.07004825  .00001572  00000-0  66567-4 0  9996
2 61846  42.9999 228.0117 0000443 238.7903 121.2906 15.27600907 55933
Epoch: 2025-11-02T01:40Z
TLE epoch observation values (Epoch: 2025-11-02T01:40:52.168Z)
Latitude
0.00002°
Longitude
161.2033°
Altitude
482.92 km
Speed
7.626 km/s
True Right ascension
15h 12m 02s
True Declination
0° 00' 00"
Sunlit
Object was in daylight at epoch
Visualization orbit readout
Latitude
Unknown
Longitude
Unknown
Altitude
Unknown
Speed
Unknown
Apparent Right ascension
Unknown
Apparent Declination
Unknown
Sunlit
N/A
Visualization observer readout
Local Sidereal Time
04:58:38
Azimuth
Unknown
Elevation
Unknown
Doppler factor
Unknown
Orbital elements
Apogee altitude
485.236 km
Perigee altitude
484.628 km
Semi-major axis
6,863.069 km
Eccentricity
0.00004
Inclination
42.9999°
RAAN
228.0117°
Arg. of periapsis
238.7903°
True anomaly
121.29494°
Mean anomaly
121.2906°
Eccentric anomaly
121.29277°
Mean motion
3.81738 °/min
Orbital period
94.31 mins
BSTAR
0.000066567
Loading maneuver chart data...
Computing Atmospheric mass density...
Loading historical data...
Loading historical data...
Loading historical data...
Loading historical data...
Loading historical data...
Loading historical data...
Loading historical data...

Documentation

Showing up to 5 results
|